Flag for Germany Weather past 2 weeks in Schloss Holte-Stukenbrock, North Rhine-Westphalia, Germany

Now
62 °F

Passing clouds.


Feels Like: 62 °F
Forecast: 47 / 58 °F
Wind: 5 mph from Northwest

Location: Bad Lippspringe

Current Time: Sep 21, 2014 at 6:34:38 PM

Latest Report: Sep 21, 2014 at 6:00 PM


Visibility: 25 mi

Pressure: 29.97 "Hg

Humidity: 63%

Dew point: 49 °F

Location of Schloss Holte-StukenbrockLocation

Historic Weather in Schloss Holte-Stukenbrock — Graph

°F

Schloss Holte-Stukenbrock temperature yesterday

Maximum temperature yesterday: 68 °F (at 2:00 PM)
Minimum temperature yesterday: 60 °F (at 11:00 PM)
Average temperature yesterday: 64 °F

Past Weeks' High & Low Weather Summary

 TemperatureHumidityPressure
High77 °F (Sep 6, 6:00 PM)99% (Sep 8, 4:00 AM)30.23 "Hg (Sep 8, 4:00 AM)
Low44 °F (Sep 12, 5:00 AM)48% (Sep 6, 6:00 PM)29.85 "Hg (Sep 6, 6:00 PM)
Average61 °F83%30.03 "Hg
* Reported Sep 6 5:00 PM — Sep 21 5:00 PM, Schloss Holte-Stukenbrock, Weather by CustomWeather, © 2014

Note: Actual official high and low records may vary slightly from our data, if they occured in-between our weather recording intervals... More about our weather records

Advertising

Schloss Holte-Stukenbrock weather history for previous 24 hours

 ConditionsComfort  
Time TempWeatherWind HumidityBarometerVisibility
5:00 PM
Sep 21
62 °FScattered clouds.6 mph63%29.97 "Hg16 mi
4:00 PM62 °FOvercast.3 mph75%29.97 "Hg16 mi
3:00 PM61 °FOvercast.3 mph87%29.97 "Hg8 mi
2:00 PM60 °FOvercast.3 mph87%29.99 "Hg9 mi
1:00 PM59 °FOvercast.2 mph93%29.98 "Hg7 mi
12:00 PM59 °FLight rain. Overcast.2 mph93%29.97 "Hg3 mi
11:00 AM60 °FDrizzle. Low clouds.2 mph93%29.95 "Hg2 mi
10:00 AM60 °FLow clouds.2 mph96%29.95 "Hg1 mi
9:00 AM59 °FLow clouds.2 mph97%29.94 "Hg1 mi
8:00 AM58 °FDrizzle. Low clouds.2 mph99%29.94 "Hg0 mi
7:00 AM58 °FDrizzle. Low clouds.2 mph97%29.94 "Hg1 mi
6:00 AM59 °FFog.2 mph95%29.94 "Hg2 mi
5:00 AM59 °FFog.2 mph96%29.94 "Hg1 mi
4:00 AM60 °FFog.1 mph97%29.94 "Hg2 mi
3:00 AM59 °FFog.1 mph96%29.95 "Hg2 mi
2:00 AM59 °FFog.1 mph97%29.95 "Hg2 mi
1:00 AM59 °FOvercast.1 mph96%29.96 "Hg2 mi
12:00 AM59 °FOvercast.1 mph96%29.96 "Hg2 mi
11:00 PM
Sep 20
60 °FLight rain. Low clouds.1 mph96%29.96 "Hg2 mi
10:00 PM61 °FRain. Low clouds.2 mph93%29.96 "Hg1 mi
9:00 PM64 °FRain. Overcast.2 mph92%29.93 "Hg1 mi
8:00 PM64 °FFog.1 mph94%29.93 "Hg1 mi
Weather by CustomWeather, © 2014

See weather overviewHow to use our weather pages